Home   Weather   Kennebunk   Past weeks

Flag for USA Past Weather in Kennebunk, Maine, USA — Yesterday and Last 2 Weeks

Now
52 °F

Light rain. Fog.


Feels Like: 50 °F
Forecast: 47 / 56 °F
Wind: 7 mph from Northeast

Location: Sanford Municipal

Current Time: Apr 27, 2017 at 1:36:12 am

Latest Report: Apr 27, 2017 at 12:56 am


Visibility: 3 mi

Pressure: 29.92 "Hg

Humidity: 97%

Dew Point: 51 °F

Location of KennebunkLocation

Past Weather in Kennebunk — Graph

°F

Kennebunk Temperature Yesterday

Maximum temperature yesterday: 55 °F (at 3:37 pm)
Minimum temperature yesterday: 43 °F (at 12:56 am)
Average temperature yesterday: 51 °F

High & Low Weather Summary for the Past Weeks

 TemperatureHumidityPressure
High85 °F (Apr 16, 1:56 pm)100% (Apr 12, 4:56 am)30.63 "Hg (Apr 12, 4:56 am)
Low24 °F (Apr 15, 5:56 am)16% (Apr 14, 1:56 pm)29.61 "Hg (Apr 16, 5:56 pm)
Average48 °F78%30.16 "Hg
* Reported Apr 12 12:56 am — Apr 27 12:09 am, Kennebunk, Weather by CustomWeather, © 2017

Note: Actual official high and low records may vary slightly from our data, if they occured in-between our weather recording intervals... More about our weather records

Advertising

Kennebunk Weather History for the Previous 24 Hours

Scroll right to see more
 ConditionsComfort  
Time TempWeatherWind HumidityBarometerVisibility
12:09 am
Thu, Apr 27
52 °FLight rain. Fog.6 mph100%29.89 "Hg3 mi
11:56 pm
Wed, Apr 26
52 °FLight rain. Fog.3 mph100%29.92 "Hg4 mi
11:20 pm52 °FLight rain. Fog.5 mph100%29.89 "Hg2 mi
10:56 pm52 °FLight rain. Fog.5 mph100%29.92 "Hg2 mi
9:56 pm52 °FLight rain. Fog.6 mph100%29.92 "Hg1 mi
9:14 pm52 °FLight rain. Fog.10 mph100%29.88 "Hg2 mi
8:56 pm52 °FLight rain. Fog.7 mph100%29.92 "Hg2 mi
7:56 pm53 °FLight rain. Fog.9 mph96%29.92 "Hg2 mi
7:31 pm54 °FLight rain. Fog.7 mph100%29.89 "Hg3 mi
7:10 pm54 °FLight rain. Fog.9 mph100%29.88 "Hg1 mi
6:56 pm54 °FFog.8 mph97%29.92 "Hg2 mi
6:26 pm55 °FMostly cloudy.7 mph94%29.89 "Hg10 mi
5:56 pm55 °FLight rain. Fog.7 mph96%29.92 "Hg5 mi
5:26 pm55 °FLight rain. Fog.7 mph94%29.88 "Hg5 mi
4:56 pm55 °FLight rain. Fog.5 mph100%29.91 "Hg4 mi
3:56 pm55 °FLight rain. Fog.6 mph96%29.93 "Hg2 mi
3:37 pm55 °FLight rain. Fog.8 mph94%29.90 "Hg1 mi
3:21 pm54 °FLight rain. Fog.7 mph100%29.90 "Hg2 mi
2:56 pm54 °FRain. Fog.6 mph97%29.95 "Hg5 mi
2:02 pm54 °FLight rain. Fog.8 mph94%29.92 "Hg2 mi
1:35 pm52 °FLight rain. Fog.7 mph100%29.93 "Hg4 mi
1:02 pm52 °FRain. Fog.9 mph94%29.93 "Hg2 mi
12:34 pm50 °FLight rain. Fog.10 mph94%29.94 "Hg2 mi
12:04 pm48 °FLight rain. Fog.7 mph100%29.95 "Hg2 mi
11:56 am49 °FLight rain. Fog.8 mph100%29.98 "Hg3 mi
10:56 am48 °FRain. Fog.10 mph96%30.01 "Hg4 mi
9:56 am47 °FLight rain. Fog.7 mph97%30.02 "Hg5 mi
9:10 am46 °FLight rain. Fog.10 mph100%29.99 "Hg3 mi
6:56 am45 °FLight rain. Fog.9 mph97%30.04 "Hg3 mi
6:08 am45 °FLow clouds.9 mph100%30.01 "Hg10 mi
4:56 am44 °FLight rain. Low clouds.8 mph96%30.06 "Hg8 mi
3:56 am44 °FLight rain. Fog.10 mph96%30.09 "Hg5 mi
2:56 am44 °FLight rain. Low clouds.9 mph96%30.10 "Hg9 mi
1:56 am43 °FLight rain. Low clouds.9 mph100%30.12 "Hg7 mi
Weather by CustomWeather, © 2017

See weather overviewHow to use our weather pages